"Pseudo-MPEC" for P10OD53

Created 2019 Jun 15 19:08:02 UT using Find_Orb

Click here for an explanation of pseudo-MPECs

 
 Astrometry: 
     P10OD53  C2019 05 07pDSA]_3vr,@0EwxU[]O*CNm`s.g`.8^bYB!FsS8]Rj\a%sj$b#,UF51
     P10OD53  C2019 05 07+@C%BV!D#s=02!bV7IAstrometry[09;hsO17U)vO0tTRP/P-)n=F51
     P10OD53  C2019 05 07oI%K:(`Jredacted;BVmxOBcfQm#65/AD`NM.lv1K!K.bOPrB(GdF51
     P10OD53  C2019 05 30kg;^)v;t1%;U?i]M538;5cIQlyI5[JclickSkoetEZHV9ceX-_B6F52
     P10OD53  C2019 05 30w]%:,0-_Yvt]O!Nx@CKSn4?uufe=Uj2s!3hereovpxwxw=!tqLN?F52
     P10OD53  C2019 06 02:GF6v2.b)c,;%ah[t71E6.Cg%DaPJipejUg(c)15'`voAKa,pwnmF51
     P10OD53  C2019 06 02slY#Is[mi64qS=]4St)go.N!$KoLiBIE4Lsps`.hnKK(XiVVKJ+)F51
     P10OD53  C2019 06 020OUTqMWp;)C1V`LdN@6SHHv$dR)i7crH8'VcT33opW[Lq-7y'',OF51
     P10OD53  C2019 06 02O(-nZj]LS/tk6PTD=gm3xN_I5vHWTEa\,UqvlCO!qtk!(5J(QHWjF51
     P10OD53  C2019 06 03.28256 16 26 15.39 +07 09 39.1    ~637q 21.4 GVNEOCPV06
     P10OD53  C2019 06 03.28659 16 26 15.11 +07 09 41.9    ~637q 21.6 GVNEOCPV06
     P10OD53  C2019 06 03.29063 16 26 14.83 +07 09 44.5    ~637q 21.4 GVNEOCPV06
     P10OD53  C2019 06 03.29466 16 26 14.54 +07 09 47.4    ~637q 21.8 GVNEOCPV06
     P10OD53 KC2019 06 04rFAtcxOb_eon\E`YO;PI,QRAoJ$[kv[2qxdaJe0UY[*N2.5=`V3Z711
     P10OD53 KC2019 06 04g@oXqQDBO/Bj3a+c0dynm1((8oXM]SBo$M:FW#BG6)AG2`FZS1]5711
     P10OD53 KC2019 06 049yM/2Few;CJUi[2e)Hn_joKP;+]hr@BE)TOswj!_]2J@5rY%h*/]711
     P10OD53 KC2019 06 065ldXd^cA.=p'::wpn\-[,MpX,uFj*^YPH7:`kW'yuQiE#_:9luEs711
     P10OD53 KC2019 06 06kXY@$I$b)Td@n$f%_e6Fj\#)P=v%Ipt)jSRn;[HZVp^BuDaP4-tJ711
     P10OD53 IC2019 06 06e#(S%x#OM,?8gut5U*_n[lgeO_Q:+vp1tM:G3ZMKG#y7X)v/1rQv711
     P10OD53 KC2019 06 07y5*tR5pHjO;lbOs3Pv3g/p5ZOb1ak;EemZ[o[%Dvq,%ktUAaCPW;291
     P10OD53 KC2019 06 07@7D(JCm@hXg97]?53jv85pnWWkah`[*c(/`vON.pQH-hgCW?nmi$291
     P10OD53  C2019 06 07F-?4m!nRdQaK'jS5`^]HM$E)6w]-:afor-!AI'j!FAKH,X]F=uHjF51
     P10OD53  C2019 06 07yms51JLrd3%@n!iOkjOf`4lYKlPF;@bmiN=F\OLwME'iV*O1ruDwF51
     P10OD53  C2019 06 07gtD\nxEagsX)?n3EJ0rokj^HN3YFb#xPQBfEte`a8rk2g$W7hPaZF51
     P10OD53  C2019 06 07ty(Ig;IOrG%ICFn=1.%$p6mtm_bwvry$Afsjk8u:[Aby-JX1QNGxF51
     P10OD53  C2019 06 09n]l7;7s_#m)s^uISWjo0Q@hqpexplanation=Ir2-6XxQP5K5mr@F51
     P10OD53  C2019 06 09Vni/K4Y5eSW\JMyMEeZ5w3gMHlod56@)%*.9=CYpTot'nG4\;1o\F51
     P10OD53  C2019 06 099qNUgljW3M\q[P4Xc^2XXmYsn;5Z0qs\(IlMY*6Frn/V[Ah(HpckF51
     P10OD53  C2019 06 09*N#0p`3c39v3/'IVyr?VSax5=F7gd\rlyOo5i2H(/\kj_GiWgyd(F51
     P10OD53  C2019 06 10xExk2bN^T'40PIy=L[LbMpGt_Y;9CC7wB5i/Rqm,R[q(+py1R%s%F51
     P10OD53  C2019 06 10u@S[SotQleN5TqD,BkmtMdW2ZVCf\EW6Slj@An+I]:A[F=Mm81IfF51
     P10OD53  C2019 06 10F%/2;%XM;e?_g`Z[E*s_%T`B'-Z[?)Gec0w$5/Q+tKj;e%w0/pJ4F51
     P10OD53  C2019 06 10$0V,=kA6NC!kSSJCUNkr,kw],-t26+r-P9x$6yJjRtgIO;:03F!eF51

Station data:
(291) LPL/Spacewatch II  (N31.961669 W111.599905)  US/Arizona.  Observers J.
   V. Scotti, R. S. McMillan. 1.8-m f/2.7 reflector + CCD.
(711) McDonald Observatory, Fort Davis  (N30.671481 W104.021500)  US/Texas.
   0.76-m f/3.0 reflector.
(F51) Pan-STARRS 1, Haleakala  (N20.707235 W156.255910)  US/Hawaii.
   Observers N. Primak, A. Schultz, S. Watters, J. Thiel, T. Goggia. Measurer
   PS1 Science Consortium. 1.8-m Ritchey-Chrétien + CCD.
(F52) Pan-STARRS 2, Haleakala  (N20.707384 W156.255910)  US/Hawaii. 1.8-m
   Ritchey-Chrétien + CCD.
(V06) Catalina Sky Survey-Kuiper  (N32.416847 W110.732550)  US/Arizona.
   Observers T. A. Pruyne, B. M. Africano, E. J. Christensen, G. A. Farneth,
   D. C. Fuls, A. R. Gibbs, A. D. Grauer, H. Groeller, J. A. Johnson, R. A.
   Kowalski, S. M. Larson, G. J. Leonard, R. L. Seaman, F. C. Shelly. 1.55-m
   reflector + CCD.

Orbital elements:  P10OD53
   Perihelion 2020 Jul 18.804970 +/- 0.215 TT = 19:19:09 (JD 2459049.304970)
Epoch 2019 Jun 10.0 TT = JDT 2458644.5   Earth MOID: 0.7093   AutoNEOCP
M 203.92670674 +/- 0.07             (J2000 ecliptic)
n   0.38555182 +/- 3.84e-5          Peri.  204.86716 +/- 0.054
a   1.86959502 +/- 0.000124         Node   207.38312 +/- 0.007
e   0.0940919 +/- 4.5e-5            Incl.   22.14515 +/- 0.0049
P   2.56/933.71d           H 19.7   G  0.15   U  6.0  
q 1.69368120 +/- 0.000127    Q 2.04550884 +/- 0.000173
From 33 observations 2019 May 7-June 10; mean residual 0".47
Residuals in arcseconds: 
190507 F51  .03+  .08-    190603 V06  .06+  .00     190607 F51  .03+  .15+    
190507 F51  .04+  .09+    190603 V06  .01-  .20+    190607 F51  .09+  .04+    
190507 F51  .06-  .05-    190604 711  .06+  .04+    190607 F51  .02-  .09+    
190530 F52  .32-  .15+    190604 711  .38+  .09-    190609 F51  .10-  .01+    
190530 F52  .12-  .33+    190604 711  1.8+  3.0-    190609 F51  .12-  .03+    
190602 F51  .09-  .19+    190606 711  .14-  .10+    190609 F51  .03-  .05-    
190602 F51  .11-  .20+    190606 711  .46-  .45+    190609 F51  .08+  .01-    
190602 F51  .13-  .14+    190606 711  .24-  .33+    190610 F51  .01-  .15-    
190602 F51  .08-  .04+    190607 291  .04-  .04+    190610 F51  .04-  .00     
190603 V06  .10-  .02+    190607 291  .01-  .59+    190610 F51  .01-  .17-    
190603 V06  .02-  .11+    190607 F51  .34-  .05+    190610 F51  .02+  .08-    

Ephemerides (geocentric):
Date (UTC) HH   RA              Dec         delta   r     elong  mag " sig PA
---- -- -- --  -------------   -----------  ------ ------ -----  --- ---- ---
2019 06 15 19  16 13 06.571   +08 54 11.50  1.1303 2.0303 142.1 22.4 .433  27
2019 06 15 20  16 13 04.231   +08 54 25.24  1.1305 2.0303 142.1 22.4 .435  27
2019 06 15 21  16 13 01.894   +08 54 38.92  1.1306 2.0303 142.1 22.4 .437  27
2019 06 15 22  16 12 59.559   +08 54 52.56  1.1308 2.0303 142.0 22.4 .439  27
2019 06 15 23  16 12 57.227   +08 55 06.16  1.1310 2.0303 142.0 22.4 .442  27
2019 06 16 00  16 12 54.897   +08 55 19.70  1.1312 2.0302 142.0 22.4 .444  27
2019 06 16 01  16 12 52.570   +08 55 33.20  1.1314 2.0302 142.0 22.4 .446  27
2019 06 16 02  16 12 50.245   +08 55 46.65  1.1316 2.0302 141.9 22.4 .449  27
2019 06 16 03  16 12 47.922   +08 56 00.06  1.1317 2.0302 141.9 22.4 .451  27
2019 06 16 04  16 12 45.602   +08 56 13.42  1.1319 2.0302 141.9 22.4 .453  27
2019 06 16 05  16 12 43.285   +08 56 26.73  1.1321 2.0302 141.8 22.4 .456  27
2019 06 16 06  16 12 40.969   +08 56 40.00  1.1323 2.0301 141.8 22.4 .458  26
2019 06 16 07  16 12 38.657   +08 56 53.22  1.1325 2.0301 141.8 22.4 .460  26
2019 06 16 08  16 12 36.346   +08 57 06.39  1.1327 2.0301 141.7 22.4 .463  26
2019 06 16 09  16 12 34.039   +08 57 19.52  1.1328 2.0301 141.7 22.4 .465  26
2019 06 16 10  16 12 31.733   +08 57 32.60  1.1330 2.0301 141.7 22.4 .467  26
2019 06 16 11  16 12 29.430   +08 57 45.63  1.1332 2.0300 141.6 22.4 .470  26
2019 06 16 12  16 12 27.130   +08 57 58.62  1.1334 2.0300 141.6 22.4 .472  26
2019 06 16 13  16 12 24.832   +08 58 11.56  1.1336 2.0300 141.6 22.5 .474  26
2019 06 16 14  16 12 22.537   +08 58 24.45  1.1338 2.0300 141.5 22.5 .477  26
2019 06 16 15  16 12 20.244   +08 58 37.30  1.1339 2.0300 141.5 22.5 .479  26
2019 06 16 16  16 12 17.953   +08 58 50.10  1.1341 2.0300 141.5 22.5 .481  26
2019 06 16 17  16 12 15.665   +08 59 02.86  1.1343 2.0299 141.4 22.5 .484  26
2019 06 16 18  16 12 13.380   +08 59 15.57  1.1345 2.0299 141.4 22.5 .486  26
2019 06 16 19  16 12 11.097   +08 59 28.23  1.1347 2.0299 141.4 22.5 .488  26
2019 06 16 20  16 12 08.816   +08 59 40.84  1.1349 2.0299 141.3 22.5 .491  25
2019 06 16 21  16 12 06.538   +08 59 53.41  1.1351 2.0299 141.3 22.5 .493  25
2019 06 16 22  16 12 04.263   +09 00 05.94  1.1353 2.0298 141.3 22.5 .496  25
2019 06 16 23  16 12 01.990   +09 00 18.41  1.1354 2.0298 141.2 22.5 .498  25
2019 06 17 00  16 11 59.720   +09 00 30.84  1.1356 2.0298 141.2 22.5 .500  25
2019 06 17 01  16 11 57.452   +09 00 43.23  1.1358 2.0298 141.2 22.5 .503  25
2019 06 17 02  16 11 55.187   +09 00 55.57  1.1360 2.0298 141.1 22.5 .505  25
2019 06 17 03  16 11 52.924   +09 01 07.86  1.1362 2.0297 141.1 22.5 .507  25
2019 06 17 04  16 11 50.663   +09 01 20.11  1.1364 2.0297 141.1 22.5 .510  25
2019 06 17 05  16 11 48.406   +09 01 32.30  1.1366 2.0297 141.0 22.5 .512  25
2019 06 17 06  16 11 46.151   +09 01 44.46  1.1368 2.0297 141.0 22.5 .515  25
2019 06 17 07  16 11 43.898   +09 01 56.57  1.1370 2.0297 141.0 22.5 .517  25
2019 06 17 08  16 11 41.648   +09 02 08.63  1.1372 2.0297 140.9 22.5 .519  25
2019 06 17 09  16 11 39.400   +09 02 20.64  1.1374 2.0296 140.9 22.5 .522  25
2019 06 17 10  16 11 37.156   +09 02 32.61  1.1375 2.0296 140.9 22.5 .524  24
2019 06 17 11  16 11 34.913   +09 02 44.53  1.1377 2.0296 140.9 22.5 .527  24
2019 06 17 12  16 11 32.673   +09 02 56.41  1.1379 2.0296 140.8 22.5 .529  24
2019 06 17 13  16 11 30.436   +09 03 08.24  1.1381 2.0296 140.8 22.5 .532  24
2019 06 17 14  16 11 28.202   +09 03 20.03  1.1383 2.0295 140.8 22.5 .534  24
2019 06 17 15  16 11 25.970   +09 03 31.76  1.1385 2.0295 140.7 22.5 .536  24
2019 06 17 16  16 11 23.740   +09 03 43.46  1.1387 2.0295 140.7 22.5 .539  24
2019 06 17 17  16 11 21.513   +09 03 55.10  1.1389 2.0295 140.7 22.5 .541  24
2019 06 17 18  16 11 19.289   +09 04 06.70  1.1391 2.0295 140.6 22.5 .544  24